Meiringen, Switzerland 16 day weather forecast

Slopes altitude range 1060 m - 2435m

Number of lifts: 18 Pistes: 60km

In some cases the lift and piste totals shown are for the ski domain (e.g. Three Valleys) rather than individual resort (e.g. Courchevel)

Overview

The 16 day weather forecast is fully updated 4 times every day.

    • Thu 21 FEB 2019
    • Thu 21
    • 4C 11C
    • Fri 22 FEB 2019
    • Fri 22
    • 1C 9C
    • Sat 23 FEB 2019
    • Sat 23
    • -1C 6C
    • Sun 24 FEB 2019
    • Sun 24
    • -2C 7C
    • Mon 25 FEB 2019
    • Mon 25
    • -2C 9C
    • Tue 26 FEB 2019
    • Tue 26
    • 0C 9C
    • Wed 27 FEB 2019
    • Wed 27
    • 1C 12C
    • Thu 28 FEB 2019
    • Thu 28
    • 4C 14C
    • Fri 01 MAR 2019
    • Fri 01
    • 2C 11C
    • Sat 02 MAR 2019
    • Sat 02
    • 2C 12C
    • Sun 03 MAR 2019
    • Sun 03
    • 2C 7C
    • Mon 04 MAR 2019
    • Mon 04
    • 3C 16C
    • Tue 05 MAR 2019
    • Tue 05
    • 4C 9C
    • Wed 06 MAR 2019
    • Wed 06
    • 2C 6C
    • Thu 07 MAR 2019
    • Thu 07
    • -4C 2C
    • Fri 08 MAR 2019
    • Fri 08
    • -6C 1C

Date:

Time Type 0°C level Temp Chill Snow Cloud Speed Gust Dir Press
18:00 2180m 11°C 11_5 0cm 2% 5mph 6mph 1030mB
21:00 2087m 2°C 2_5 0cm 0% 5mph 7mph 1032mB
0:00 2051m 2°C 2_5 0cm 1% 5mph 6mph 1033mB
3:00 2005m 2°C 2_4 0cm 53% 4mph 6mph 1033mB
6:00 1807m 1°C 1_4 0cm 48% 4mph 5mph 1033mB
9:00 2061m 1°C 1_2 0cm 15% 2mph 4mph 1032mB
12:00 2104m 9°C 9_6 0cm 8% 6mph 11mph 1030mB
15:00 1797m 9°C 9_8 0cm 1% 8mph 12mph 1030mB
18:00 1673m 9°C 9_4 0cm 12% 4mph 7mph 1033mB
21:00 2350m 1°C 1_3 0cm 2% 3mph 4mph 1033mB
0:00 2513m 0°C 0_3 0cm 8% 3mph 4mph 1033mB
3:00 2482m 0°C 0_2 0cm 5% 2mph 3mph 1032mB
6:00 1056m 0°C 0_2 0cm 16% 2mph 3mph 1033mB
9:00 1758m -1°C -1_4 0cm 16% 4mph 6mph 1032mB
12:00 2307m 6°C 6_6 0cm 12% 6mph 10mph 1031mB
15:00 3309m 7°C 7_5 0cm 7% 5mph 7mph 1030mB
18:00 2899m 7°C 7_2 0cm 19% 2mph 3mph 1032mB
21:00 814m -1°C -1_2 0cm 0% 2mph 3mph 1033mB
0:00 683m -2°C -2_1 0cm 0% 1mph 2mph 1034mB
3:00 652m -2°C -2_1 0cm 0% 1mph 2mph 1034mB
6:00 640m -2°C -2_1 0cm 1% 1mph 2mph 1034mB
9:00 1707m -2°C -2_3 0cm 47% 3mph 3mph 1034mB
12:00 3327m 7°C 7_5 0cm 57% 5mph 6mph 1033mB
15:00 3366m 7°C 7_5 0cm 21% 5mph 8mph 1032mB
18:00 3323m 7°C 7_2 0cm 11% 2mph 3mph 1034mB
21:00 1530m 0°C 0_2 0cm 0% 2mph 3mph 1035mB
0:00 1028m -1°C -1_2 0cm 0% 2mph 3mph 1035mB
3:00 760m -1°C -1_2 0cm 32% 2mph 3mph 1034mB
6:00 720m -1°C -1_2 0cm 57% 2mph 3mph 1035mB
9:00 3201m -2°C -2_4 0cm 72% 4mph 6mph 1035mB
12:00 3177m 9°C 9_7 0cm 62% 7mph 11mph 1033mB
15:00 3074m 11°C 11_5 0cm 0% 5mph 7mph 1032mB
18:00 2997m 11°C 11_2 0cm 0% 2mph 2mph 1034mB
21:00 2853m 2°C 2_3 0cm 0% 3mph 4mph 1036mB
0:00 3020m 1°C 1_3 0cm 0% 3mph 4mph 1036mB
3:00 3345m 1°C 1_3 0cm 0% 3mph 4mph 1035mB
6:00 3312m 0°C 0_3 0cm 0% 3mph 3mph 1034mB
9:00 3321m 0°C 0_2 0cm 0% 2mph 3mph 1033mB
12:00 3339m 9°C 9_5 0cm 40% 5mph 6mph 1031mB
15:00 3428m 10°C 10_5 0cm 96% 5mph 8mph 1029mB
18:00 3484m 10°C 10_2 0cm 92% 2mph 3mph 1030mB
21:00 3543m 3°C 3_2 0cm 37% 2mph 2mph 1030mB
0:00 3554m 2°C 2_1 0cm 19% 1mph 2mph 1029mB
3:00 3535m 1°C 1_1 0cm 0% 1mph 2mph 1028mB
6:00 3517m 1°C 1_2 0cm 0% 2mph 2mph 1028mB
9:00 3588m 1°C 1_2 0cm 14% 2mph 2mph 1026mB
12:00 3586m 12°C 12_3 0cm 11% 3mph 2mph 1024mB
15:00 3504m 12°C 12_3 0cm 15% 3mph 4mph 1023mB
18:00 3473m 12°C 12_2 0cm 19% 2mph 3mph 1024mB
21:00 3409m 5°C 5_4 0cm 16% 4mph 5mph 1024mB
0:00 3237m 5°C 5_5 0cm 9% 5mph 6mph 1024mB
3:00 3058m 4°C 4_6 0cm 11% 6mph 7mph 1024mB
6:00 2977m 4°C 4_6 0cm 42% 6mph 7mph 1025mB
9:00 2928m 4°C 4_3 0cm 32% 3mph 5mph 1024mB
12:00 2832m 14°C 14_4 0cm 26% 4mph 7mph 1023mB
15:00 2712m 14°C 14_3 0cm 85% 3mph 6mph 1022mB
18:00 2625m 14°C 14_1 0cm 55% 1mph 1mph 1024mB
21:00 2376m 5°C 5_3 0cm 10% 3mph 4mph 1026mB
0:00 2340m 4°C 4_4 0cm 19% 4mph 5mph 1026mB
3:00 2369m 3°C 3_4 0cm 25% 4mph 4mph 1025mB
6:00 2253m 2°C 2_3 0cm 45% 3mph 4mph 1025mB
9:00 2294m 2°C 2_1 0cm 59% 1mph 1mph 1025mB
12:00 2313m 11°C 11_3 0cm 78% 3mph 3mph 1023mB
15:00 2295m 11°C 11_3 0cm 95% 3mph 3mph 1022mB
18:00 2273m 11°C 11_2 0cm 88% 2mph 2mph 1024mB
21:00 2204m 4°C 4_3 0cm 82% 3mph 4mph 1024mB
0:00 2265m 3°C 3_3 0cm 89% 3mph 3mph 1023mB
3:00 2172m 2°C 2_4 0cm 91% 4mph 5mph 1023mB
6:00 2130m 1°C 1_5 0cm 91% 5mph 6mph 1022mB
9:00 2213m 2°C 2_6 0cm 98% 6mph 14mph 1021mB
12:00 2163m 12°C 12_11 0cm 97% 11mph 21mph 1019mB
15:00 2273m 12°C 12_11 0cm 44% 11mph 24mph 1016mB
18:00 2211m 12°C 12_11 0cm 57% 11mph 31mph 1018mB
21:00 2007m 7°C 7_15 0cm 100% 15mph 39mph 1017mB
0:00 2010m 7°C 7_13 0cm 100% 13mph 40mph 1018mB
3:00 1736m 4°C 4_8 0cm 100% 8mph 22mph 1019mB
6:00 1342m 3°C 3_6 0cm 100% 6mph 23mph 1022mB
9:00 1462m 2°C 2_11 0cm 100% 11mph 23mph 1024mB
12:00 1658m 7°C 7_12 0cm 100% 12mph 21mph 1024mB
Morning 0.015625mm 0 2309m 3°C 3_7 0cm 40% 7mph 7mph 1023mB
Afternoon 0mm 0 2573m 16°C 16_11 0cm 49% 11mph 26mph 1012mB
Morning 0.442708mm 0.4375 1744m 6°C 6_7 0cm 96% 7mph 22mph 1014mB
Afternoon 0.00520833mm 0 1710m 9°C 9_12 0cm 76% 12mph 27mph 1010mB
Morning 0.15625mm 0.0625 1665m 5°C 5_8 0cm 69% 8mph 23mph 1007mB
Afternoon 0.369792mm 2.0625 1375m 6°C 6_13 16cm 64% 13mph 26mph 1012mB
Morning 0.0520833mm 0.1875 861m 0°C 0_4 2cm 83% 4mph 8mph 1017mB
Afternoon 0.0208333mm 0.1875 899m 2°C 2_7 0cm 26% 7mph 10mph 1023mB
Morning 0.0833333mm 0.8125 0m -6°C -6_4 6cm 67% 4mph 6mph 1033mB
Afternoon 0mm 0 879m 1°C 1_5 0cm 21% 5mph 7mph 1035mB
Morning 0mm 0 140m -5°C -5_5 0cm 17% 5mph 6mph 1037mB
Afternoon 0mm 0 1707m 9°C 9_4 0cm 14% 4mph 8mph 1028mB

16 day outlook at a glance

Forecast issued: 21/02/2019 17:43:07

Chat

Your comments and questions. In a resort? Let us know what it's like!


Characters left 250

For terms and conditions see Readers Comments on the Cookie and privacy policy page.